[[{"header":{"parameterUnit":"m.s-1","parameterCategory":1,"la1":30.2991,"la2":30.254,"lo1":-89.0895,"lo2":-89.0444,"dy":0.0017,"dx":0.0017,"nx":28,"ny":28,"refTime":"2025-07-29T03:00:00:Z","depth":0,"parameterNumber":2,"parameterNumberName":"U-component_of_WINDS"},"data":[0,0,0,0,0,0,0,0,0,0,0,0,0,0,0,0,0,0,0,0,0,0,0,0,0,0,0,0,0,0,0,0,0,0,0,0,0,0,0,0,0,0,0,0,0,0,0,0,0,0,0,0,0,0,0,0,0,0,-0.0817,-0.0818,0,-0.09,-0.0901,-0.0902,-0.0955,-0.0955,-0.0955,-0.0956,-0.1037,-0.1039,-0.1041,0,0,0,0,0,0,0,0,0,0,0,0,0,-0.0701,-0.0703,-0.0817,-0.0818,-0.0819,-0.09,-0.0901,-0.0902,-0.0955,-0.0955,-0.0956,-0.0956,-0.1036,-0.1039,-0.1041,0,0,0,0,0,0,0,0,0,0,0,0,0,-0.0764,-0.0704,-0.0817,-0.0855,-0.0859,-0.09,-0.0901,-0.0902,-0.0955,-0.0955,-0.0956,-0.0956,-0.1036,-0.1038,-0.1041,-0.1049,0,0,-0.105,-0.1051,0,0,0,0,0,0,0,0,-0.0761,-0.0769,-0.0848,-0.0853,-0.0857,-0.0918,-0.089,-0.0951,-0.0955,-0.0918,-0.0956,-0.0956,-0.0997,-0.1003,-0.1017,-0.1052,-0.1056,-0.105,-0.1052,-0.1053,-0.1054,0,0,0,0,0,0,0,-0.0756,-0.0765,-0.085,-0.0849,-0.0855,-0.0867,-0.0877,-0.0902,-0.0954,-0.0922,-0.0926,-0.0935,-0.0999,-0.1014,-0.1019,-0.1057,-0.105,-0.1052,-0.1054,-0.1055,-0.1104,-0.1103,0,0,0,0,0,0,-0.0746,-0.0761,-0.0847,-0.0852,-0.0809,-0.0869,-0.088,-0.0898,-0.0954,-0.0963,-0.0934,-0.0937,-0.1009,-0.1016,-0.1022,-0.1035,-0.1053,-0.1055,-0.1057,-0.1104,-0.1103,-0.1103,0,0,0,0,0,0,-0.0744,-0.0754,-0.0844,-0.0808,-0.082,-0.0871,-0.089,-0.0899,-0.0914,-0.0963,-0.0972,-0.094,-0.101,-0.1018,-0.1042,-0.1039,-0.1057,-0.1059,-0.1104,-0.1104,-0.1103,-0.106,0,0,0,0,0,0,-0.074,-0.0752,-0.0756,-0.0808,-0.0822,-0.0862,-0.089,-0.09,-0.0919,-0.0924,-0.0971,-0.098,-0.1011,-0.1038,-0.1045,-0.1043,-0.1061,-0.1105,-0.1104,-0.1103,-0.1062,-0.1058,-0.1054,0,0,0,0,0,-0.0736,-0.0739,-0.0756,-0.0766,-0.0828,-0.0862,-0.087,-0.0907,-0.0919,-0.0923,-0.0955,-0.0978,-0.1038,-0.104,-0.1048,-0.1047,-0.1105,-0.1104,-0.1103,-0.1063,-0.1059,-0.1055,0,0,0,0,0,0,-0.0684,-0.0747,-0.0766,-0.0786,-0.0819,-0.0871,-0.0877,-0.0901,-0.0929,-0.0932,-0.0976,-0.0986,-0.1005,-0.1029,-0.1029,-0.1057,-0.1074,-0.1075,-0.1041,-0.1037,-0.1033,-0.1027,-0.1064,0,0,0,0,0,-0.0675,-0.0699,-0.0752,-0.0765,-0.078,-0.0826,-0.0842,-0.0868,-0.0903,-0.0916,-0.095,-0.0982,-0.1008,-0.1024,-0.1051,-0.1066,-0.1077,-0.1069,-0.1066,-0.1063,-0.1062,-0.1072,-0.107,-0.11,-0.11,-0.11,0,0,-0.0656,-0.0694,-0.0705,-0.0755,-0.0784,-0.0806,-0.0837,-0.0859,-0.0876,-0.0919,-0.0944,-0.097,-0.1008,-0.1028,-0.1038,-0.1048,-0.1057,-0.1061,-0.1059,-0.106,-0.1071,-0.1068,-0.1066,-0.11,-0.11,-0.11,0,0,-0.0634,-0.0665,-0.0679,-0.0708,-0.0751,-0.0781,-0.0785,-0.0834,-0.0854,-0.088,-0.0913,-0.0933,-0.0977,-0.1004,-0.1023,-0.1013,-0.1036,-0.1021,-0.1001,-0.101,-0.1008,-0.1006,-0.1002,-0.1,-0.102,-0.102,-0.102,0,-0.0604,-0.0641,-0.0683,-0.0704,-0.0725,-0.0768,-0.0782,-0.0807,-0.0856,-0.0869,-0.088,-0.0938,-0.0966,-0.0993,-0.0991,-0.1005,-0.101,-0.1014,-0.1005,-0.1003,-0.1002,-0.0999,-0.0997,-0.1018,-0.1018,-0.1019,-0.1019,0,-0.0603,-0.0628,-0.0634,-0.0682,-0.0704,-0.0722,-0.0766,-0.0783,-0.0808,-0.0837,-0.0863,-0.09,-0.0935,-0.0944,-0.0967,-0.0974,-0.0979,-0.0997,-0.1015,-0.0996,-0.0994,-0.0993,-0.1015,-0.1016,-0.1016,-0.1017,0,0,-0.0547,-0.062,-0.0622,-0.0645,-0.0697,-0.0716,-0.0736,-0.0773,-0.0786,-0.0819,-0.0836,-0.0874,-0.0891,-0.0913,-0.094,-0.0949,-0.0939,-0.0966,-0.0968,-0.0959,-0.0948,-0.0933,-0.0931,-0.0955,-0.0955,-0.0955,-0.0945,0,-0.0531,-0.057,-0.061,-0.0634,-0.0657,-0.07,-0.0717,-0.075,-0.0779,-0.0803,-0.0834,-0.086,-0.0881,-0.0895,-0.0905,-0.0938,-0.0937,-0.0939,-0.097,-0.0971,-0.0958,-0.093,-0.0914,-0.0902,-0.0944,-0.0944,-0.0944,0,-0.0517,-0.055,-0.0577,-0.0629,-0.064,-0.0655,-0.0692,-0.0714,-0.0753,-0.0774,-0.0799,-0.0829,-0.0852,-0.0869,-0.09,-0.0901,-0.0916,-0.0934,-0.0935,-0.0938,-0.0955,-0.0931,-0.09,-0.0897,-0.0943,-0.0943,-0.0943,0,-0.0472,-0.0524,-0.0547,-0.0565,-0.0626,-0.0635,-0.0661,-0.0701,-0.0721,-0.0753,-0.0766,-0.08,-0.0818,-0.0844,-0.0882,-0.0891,-0.0909,-0.0929,-0.0926,-0.0925,-0.0926,-0.0925,-0.0895,-0.0938,-0.0938,-0.0939,-0.0939,0,-0.0449,-0.0464,-0.0528,-0.0542,-0.056,-0.0606,-0.0622,-0.0651,-0.0687,-0.0707,-0.0746,-0.0763,-0.0813,-0.0837,-0.0867,-0.0889,-0.0897,-0.0913,-0.092,-0.0909,-0.0906,-0.0918,-0.0919,-0.0938,-0.0938,-0.0938,-0.0938,0,-0.0401,-0.0444,-0.0472,-0.0529,-0.0544,-0.0554,-0.0602,-0.0617,-0.0649,-0.0674,-0.0682,-0.0732,-0.0762,-0.0804,-0.0846,-0.0866,-0.0883,-0.0896,-0.087,-0.0874,-0.0868,-0.0868,-0.0844,-0.0843,-0.0887,-0.0887,-0.0886,0,-0.0382,-0.0395,-0.0454,-0.0471,-0.0496,-0.0522,-0.0544,-0.059,-0.061,-0.0657,-0.0666,-0.07,-0.0729,-0.0775,-0.0814,-0.0847,-0.086,-0.085,-0.0865,-0.0853,-0.0859,-0.0857,-0.0858,-0.0845,-0.0844,-0.0844,-0.0843,0,-0.0344,-0.0366,-0.0396,-0.0434,-0.0458,-0.049,-0.0523,-0.0535,-0.0588,-0.0609,-0.0641,-0.0664,-0.0709,-0.0741,-0.078,-0.0806,-0.0833,-0.0839,-0.084,-0.0826,-0.0811,-0.0818,-0.0858,-0.0838,-0.0839,-0.0839,-0.0839,-0.084,-0.0309,-0.0323,-0.0367,-0.0399,-0.043,-0.0461,-0.0478,-0.0514,-0.0542,-0.0583,-0.0609,-0.064,-0.068,-0.0735,-0.076,-0.0785,-0.0795,-0.0797,-0.0797,-0.0796,-0.0792,-0.0809,-0.0792,-0.0792,-0.0792,-0.0793,-0.0793,0,-0.0272,-0.0304,-0.0333,-0.038,-0.0405,-0.0432,-0.0471,-0.049,-0.0517,-0.0554,-0.0582,-0.062,-0.0653,-0.0696,-0.0731,-0.0743,-0.0756,-0.075,-0.0749,-0.0754,-0.078,-0.0776,-0.0739,-0.0739,-0.0739,-0.0739,-0.0739,-0.0739,-0.0256,-0.0281,-0.0308,-0.0349,-0.038,-0.0412,-0.0432,-0.046,-0.049,-0.0531,-0.0559,-0.0588,-0.0627,-0.0666,-0.0697,-0.0709,-0.0719,-0.0709,-0.0725,-0.0748,-0.0752,-0.0757,-0.0753,-0.0712,-0.0712,-0.0697,-0.0697,-0.0696]},{"header":{"parameterUnit":"m.s-1","parameterCategory":1,"la1":30.2991,"la2":30.254,"lo1":-89.0895,"lo2":-89.0444,"dy":0.0017,"dx":0.0017,"nx":28,"ny":28,"refTime":"2025-07-29T03:00:00:Z","depth":0,"parameterNumber":3,"parameterNumberName":"V-component_of_WINDS"},"data":[0,0,0,0,0,0,0,0,0,0,0,0,0,0,0,0,0,0,0,0,0,0,0,0,0,0,0,0,0,0,0,0,0,0,0,0,0,0,0,0,0,0,0,0,0,0,0,0,0,0,0,0,0,0,0,0,0,0,0.2606,0.2605,0,0.2491,0.2489,0.2488,0.243,0.243,0.243,0.243,0.2307,0.2304,0.2301,0,0,0,0,0,0,0,0,0,0,0,0,0,0.2773,0.277,0.2606,0.2605,0.2604,0.2491,0.2489,0.2488,0.243,0.243,0.243,0.243,0.2308,0.2304,0.23,0,0,0,0,0,0,0,0,0,0,0,0,0,0.2683,0.277,0.2607,0.2562,0.2556,0.2491,0.2489,0.2487,0.243,0.243,0.243,0.243,0.2309,0.2305,0.23,0.2269,0,0,0.2285,0.2283,0,0,0,0,0,0,0,0,0.2689,0.2677,0.257,0.2564,0.2559,0.2475,0.2503,0.2414,0.243,0.2478,0.243,0.243,0.2363,0.2353,0.2331,0.2264,0.2258,0.2284,0.2281,0.2279,0.2278,0,0,0,0,0,0,0,0.2695,0.2682,0.256,0.2568,0.2561,0.2546,0.2533,0.2486,0.2422,0.2474,0.2469,0.2457,0.236,0.2336,0.2328,0.2257,0.2284,0.228,0.2277,0.2275,0.2158,0.2158,0,0,0,0,0,0,0.2709,0.2688,0.2564,0.2557,0.2625,0.2543,0.2528,0.2502,0.2422,0.241,0.2457,0.2455,0.2345,0.2334,0.2324,0.2283,0.2279,0.2275,0.2272,0.2158,0.2158,0.2158,0,0,0,0,0,0,0.2713,0.2699,0.2569,0.2621,0.2603,0.254,0.251,0.25,0.2476,0.2409,0.2397,0.2445,0.2344,0.2331,0.2284,0.2278,0.2272,0.2268,0.2159,0.2158,0.2158,0.2202,0,0,0,0,0,0,0.2718,0.27,0.2689,0.2621,0.2601,0.2532,0.251,0.2497,0.2469,0.2464,0.2395,0.2384,0.2343,0.2291,0.2279,0.2271,0.2264,0.2159,0.2158,0.2158,0.22,0.2203,0.2205,0,0,0,0,0,0.2724,0.2705,0.2689,0.2674,0.2586,0.2532,0.252,0.2476,0.2468,0.2456,0.2413,0.2386,0.2281,0.2287,0.2272,0.2263,0.2159,0.2159,0.2158,0.2199,0.2202,0.2205,0,0,0,0,0,0,0.2771,0.2695,0.2676,0.2635,0.2591,0.2523,0.2505,0.248,0.2436,0.2433,0.2379,0.2363,0.2322,0.2287,0.2296,0.223,0.2217,0.2214,0.2253,0.2256,0.2258,0.2267,0.226,0,0,0,0,0,0.2777,0.2742,0.2676,0.2646,0.2625,0.2569,0.2544,0.2514,0.2465,0.2446,0.2399,0.2352,0.2308,0.228,0.2236,0.2196,0.2179,0.2182,0.2184,0.2186,0.2184,0.216,0.216,0.2157,0.2157,0.2157,0,0,0.2788,0.2742,0.2723,0.2654,0.2616,0.2579,0.2554,0.2515,0.2487,0.2439,0.2393,0.2357,0.23,0.2257,0.2235,0.2227,0.2182,0.2186,0.2188,0.2184,0.216,0.216,0.2161,0.2157,0.2157,0.2157,0,0,0.279,0.2752,0.2722,0.2686,0.263,0.2593,0.2586,0.2522,0.2497,0.245,0.2414,0.2378,0.2304,0.2266,0.2236,0.2225,0.2198,0.2212,0.2224,0.2201,0.2201,0.2201,0.2197,0.2196,0.221,0.221,0.221,0,0.281,0.2755,0.271,0.2675,0.2645,0.2602,0.2572,0.2538,0.2469,0.2449,0.2442,0.2349,0.2307,0.2254,0.2252,0.223,0.2219,0.2219,0.2205,0.2205,0.2204,0.2199,0.2198,0.2212,0.2212,0.2211,0.2211,0,0.2782,0.2745,0.2727,0.2665,0.2634,0.2601,0.255,0.2524,0.2497,0.2461,0.2413,0.2362,0.2308,0.2293,0.2265,0.2236,0.2233,0.2216,0.2202,0.2207,0.2202,0.22,0.2215,0.2214,0.2213,0.2213,0,0,0.2809,0.2724,0.2718,0.269,0.2625,0.2594,0.2559,0.2508,0.2486,0.2441,0.2409,0.2348,0.2333,0.23,0.2267,0.2248,0.2242,0.2233,0.2231,0.2236,0.2206,0.2219,0.2218,0.2224,0.2224,0.2223,0.2211,0,0.2801,0.2738,0.2698,0.265,0.2614,0.2574,0.2543,0.25,0.2466,0.2429,0.239,0.2348,0.2331,0.2311,0.229,0.2247,0.2235,0.2248,0.2193,0.2192,0.2209,0.2215,0.2228,0.2219,0.2209,0.2208,0.2208,0,0.2783,0.2741,0.2691,0.2632,0.2615,0.2589,0.2538,0.2505,0.2454,0.2431,0.2395,0.2362,0.2323,0.2313,0.2257,0.2267,0.2242,0.2218,0.2217,0.2209,0.22,0.2207,0.2215,0.2214,0.2204,0.2205,0.2205,0,0.2807,0.2738,0.2699,0.2676,0.2606,0.2588,0.2558,0.2508,0.248,0.2435,0.2417,0.2368,0.2341,0.2303,0.2258,0.2256,0.2207,0.2194,0.2185,0.2186,0.2176,0.2177,0.2179,0.2161,0.2161,0.2161,0.2161,0,0.2803,0.2773,0.271,0.2686,0.2652,0.2605,0.2572,0.2538,0.2494,0.2462,0.2423,0.2394,0.2337,0.23,0.2264,0.2223,0.2211,0.219,0.2181,0.2193,0.2196,0.2176,0.2175,0.2161,0.2161,0.2161,0.2161,0,0.2823,0.278,0.2735,0.2673,0.2657,0.2634,0.258,0.2555,0.2519,0.2479,0.2467,0.241,0.2365,0.2317,0.2254,0.2231,0.2191,0.2178,0.2209,0.2203,0.2198,0.2199,0.2187,0.2182,0.2168,0.2168,0.2169,0,0.2823,0.28,0.2736,0.2713,0.2684,0.2647,0.2619,0.2572,0.2544,0.2486,0.2467,0.242,0.2379,0.2308,0.226,0.2213,0.2198,0.2197,0.219,0.2204,0.2198,0.2199,0.2197,0.2199,0.22,0.22,0.22,0,0.2827,0.2807,0.2769,0.2723,0.2691,0.2653,0.2612,0.2595,0.254,0.251,0.2465,0.2433,0.2371,0.2324,0.227,0.2237,0.2209,0.2203,0.2198,0.221,0.2229,0.2219,0.2214,0.2203,0.2203,0.2203,0.2202,0.2202,0.2836,0.2814,0.2767,0.2725,0.2691,0.2655,0.2628,0.259,0.2552,0.2499,0.2473,0.2427,0.2378,0.2304,0.2272,0.2234,0.2226,0.2219,0.2217,0.2217,0.222,0.2236,0.2224,0.2224,0.2224,0.2224,0.2224,0,0.2838,0.2806,0.2769,0.2715,0.2682,0.2661,0.2616,0.259,0.2551,0.2508,0.2469,0.2417,0.2371,0.2321,0.2272,0.2252,0.2237,0.224,0.2241,0.2234,0.223,0.2239,0.2252,0.2252,0.2252,0.2252,0.2252,0.2252,0.2835,0.2797,0.2772,0.2715,0.2683,0.2639,0.2615,0.2581,0.2547,0.2491,0.2453,0.2422,0.2375,0.2323,0.228,0.2266,0.225,0.2256,0.2239,0.2236,0.2234,0.2232,0.224,0.2253,0.2253,0.2245,0.2245,0.2245]}]]